Weather History for Cheyenne, WY

Change the Weather History Date:

Friday, February 8, 2013

  Actual Average Record
Temperature  
Mean Temperature 32 °F 28 °F  
Max Temperature 48 °F 39 °F 67 °F (1954)
Min Temperature 16 °F 18 °F -34 °F (1936)
Degree Days  
Heating Degree Days 33 37  
Month to date heating degree days 248 296  
Since 1 July heating degree days 4099 4323  
Cooling Degree Days 0 0  
Month to date cooling degree days 0 0  
Year to date cooling degree days 0 0  
Moisture  
Dew Point 8 °F    
Average Humidity 42    
Maximum Humidity 67    
Minimum Humidity 17    
Precipitation  
Precipitation 0.00 in 0.01 in 0.25 in (1927)
Month to date precipitation T 0.11  
Year to date precipitation 0.24 0.44  
Snow  
Snow 0.00 in 0.30 in 6.80 in (1927)
Month to date snowfall T 2.1  
Since 1 July snowfall 28.8 30.7  
Snow Depth 0.00 in    
Sea Level Pressure  
Sea Level Pressure 29.88 in    
Wind  
Wind Speed 7 mph (NNW)    
Max Wind Speed 16 mph    
Max Gust Speed 21 mph    
Visibility 10 miles    
Events      
T = Trace of Precipitation, MM = Missing Value Source: NWS Daily Summary

Daily Weather History Graph

Daily Weather History Graph

Search for Another Location

Airport:

Trip Planner

Search our weather history database for the weather conditions in past years. The results will help you decide how hot, cold, wet, or windy it might be!

Date:

Astronomy

Feb. 08, 2013 Rise Set
Actual Time 7:02 AM MST 5:25 PM MST
Civil Twilight 6:33 AM MST 5:53 PM MST
Nautical Twilight 6:01 AM MST 6:26 PM MST
Astronomical Twilight 5:28 AM MST 6:58 PM MST
Moon 5:33 AM MST (2/8) 4:01 PM MST (2/8)
Length of Visible Light 11h 20m
Length of Day
10h 22m
Waning Crescent, 3% of the Moon is Illuminated
Feb 8
Waning Crescent
Feb 10
New
Feb 17
First Quarter
Feb 25
Full
Mar 4
Last Quarter

Hourly Weather History & Observations

Time (MST) Temp. Windchill Dew Point Humidity Pressure Visibility Wind Dir Wind Speed Gust Speed Precip Events Conditions
12:53 AM 19.9 °F 12.1 °F 10.0 °F 65% 30.04 in 10.0 mi WSW 5.8 mph - N/A   Clear
1:53 AM 17.1 °F 10.0 °F 8.1 °F 68% 30.02 in 10.0 mi West 4.6 mph - N/A   Clear
2:53 AM 17.1 °F 6.6 °F 9.0 °F 71% 30.01 in 10.0 mi West 8.1 mph - N/A   Clear
3:53 AM 18.0 °F 6.9 °F 9.0 °F 68% 29.99 in 10.0 mi West 9.2 mph - N/A   Clear
4:53 AM 19.0 °F 8.2 °F 7.0 °F 59% 30.00 in 10.0 mi WNW 9.2 mph - N/A   Clear
5:53 AM 19.0 °F 5.6 °F 1.9 °F 47% 30.02 in 10.0 mi West 13.8 mph - N/A   Clear
6:53 AM 27.0 °F 16.7 °F -2.0 °F 29% 29.98 in 10.0 mi WNW 11.5 mph - N/A   Clear
7:53 AM 25.0 °F - 1.9 °F 37% 29.99 in 10.0 mi Calm Calm - N/A   Clear
8:53 AM 26.1 °F 21.9 °F 8.1 °F 47% 29.98 in 10.0 mi East 3.5 mph - N/A   Clear
9:53 AM 33.1 °F 28.7 °F 8.1 °F 35% 29.93 in 10.0 mi East 4.6 mph - N/A   Clear
10:53 AM 39.0 °F 35.7 °F 5.0 °F 24% 29.91 in 10.0 mi ESE 4.6 mph - N/A   Clear
11:53 AM 43.0 °F 37.7 °F 1.9 °F 18% 29.88 in 10.0 mi East 9.2 mph - N/A   Clear
12:53 PM 46.0 °F 40.6 °F 3.0 °F 17% 29.85 in 10.0 mi SE 11.5 mph - N/A   Clear
1:53 PM 46.9 °F - 3.0 °F 16% 29.81 in 10.0 mi East 11.5 mph - N/A   Clear
2:53 PM 46.9 °F - 6.1 °F 19% 29.80 in 10.0 mi ESE 11.5 mph - N/A   Clear
3:53 PM 45.0 °F 41.8 °F 8.1 °F 22% 29.79 in 10.0 mi East 5.8 mph - N/A   Clear
4:53 PM 39.9 °F 36.7 °F 10.0 °F 29% 29.81 in 10.0 mi ESE 4.6 mph - N/A   Clear
5:53 PM 34.0 °F 26.0 °F 10.0 °F 37% 29.83 in 10.0 mi ESE 10.4 mph - N/A   Scattered Clouds
6:53 PM 35.1 °F - 12.0 °F 39% 29.77 in 10.0 mi Calm Calm - N/A   Mostly Cloudy
7:53 PM 33.1 °F 28.7 °F 12.0 °F 42% 29.78 in 10.0 mi ENE 4.6 mph - N/A   Clear
8:53 PM 28.9 °F 23.9 °F 12.9 °F 51% 29.79 in 10.0 mi WNW 4.6 mph - N/A   Clear
9:53 PM 25.0 °F 19.3 °F 10.9 °F 55% 29.78 in 10.0 mi WNW 4.6 mph - N/A   Clear
10:53 PM 24.1 °F 17.0 °F 10.9 °F 57% 29.73 in 10.0 mi NW 5.8 mph - N/A   Clear
11:53 PM 25.0 °F 15.5 °F 10.9 °F 55% 29.71 in 10.0 mi West 9.2 mph - N/A   Clear